This is the latest recevied weather packets stored in our database for station/object W5CDN. If no packets are shown the sender has not sent any weather packets the latest 10 day(s).
| Time | Temp. | Humidity | Pressure | Rain* | Wind** | Luminosity | Snow |
|---|---|---|---|---|---|---|---|
| 1788307436 | 35° C | 47% | 1011.6 hPa | 0 mm | - | - | - |
| 1788307136 | 35° C | 47% | 1011.6 hPa | 0 mm | - | - | - |
| 1788306836 | 35° C | 47% | 1011.4 hPa | 0 mm | - | - | - |
| 1788306536 | 35.56° C | 47% | 1011.4 hPa | 0 mm | - | - | - |
| 1788306236 | 35.56° C | 46% | 1011.6 hPa | 0 mm | - | - | - |
| 1788305936 | 36.11° C | 46% | 1011.6 hPa | 0 mm | - | - | - |
| 1788305636 | 35.56° C | 46% | 1011.6 hPa | 0 mm | - | - | - |
| 1788305336 | 36.11° C | 45% | 1011.4 hPa | 0 mm | - | - | - |
| 1788305036 | 36.11° C | 45% | 1011.5 hPa | 0 mm | - | - | - |
| 1788304736 | 36.11° C | 45% | 1011.6 hPa | 0 mm | - | - | - |
| 1788304436 | 35.56° C | 45% | 1011.6 hPa | 0 mm | - | - | - |
| 1788304136 | 36.11° C | 45% | 1011.6 hPa | 0 mm | - | - | - |
| 1788303836 | 36.11° C | 45% | 1011.5 hPa | 0 mm | - | - | - |
| 1788303536 | 36.11° C | 45% | 1011.6 hPa | 0 mm | - | - | - |
| 1788303236 | 36.11° C | 45% | 1011.6 hPa | 0 mm | - | - | - |
| 1788302936 | 36.67° C | 44% | 1011.5 hPa | 0 mm | - | - | - |
| 1788302636 | 36.11° C | 44% | 1011.8 hPa | 0 mm | - | - | - |
| 1788302336 | 36.11° C | 45% | 1011.7 hPa | 0 mm | - | - | - |
| 1788302036 | 35.56° C | 44% | 1011.6 hPa | 0 mm | - | - | - |
| 1788301736 | 36.11° C | 45% | 1011.5 hPa | 0 mm | - | - | - |
| 1788301436 | 36.11° C | 45% | 1011.5 hPa | 0 mm | - | - | - |
| 1788301136 | 36.11° C | 45% | 1011.6 hPa | 0 mm | - | - | - |
| 1788300836 | 36.11° C | 45% | 1011.6 hPa | 0 mm | - | - | - |
| 1788300536 | 36.67° C | 44% | 1011.8 hPa | 0 mm | - | - | - |
| 1788300236 | 35.56° C | 45% | 1011.8 hPa | 0 mm | - | - | - |
* Rain latest hour (hover to see other rain measurements)
** Current wind speed in m/s (hover to see current wind gust speed)